GW7949 Weather Reports


time (UTC)temp
C
wind
direction
speed
KPH
gust
KPH
rain 1hr
cm
rain 24hr
cm
rain mn
cm
humidity
%
barometer
mb
20260906001518 21 137 3.2 4.8 0.00 0.00 0.00 78
20260906000518 21 116 1.6 4.8 0.00 0.00 0.00 77
20260905235519 22 83 1.6 4.8 0.00 0.00 0.00 76
20260905234519 22 122 1.6 4.8 0.00 0.00 0.00 76
20260905233519 22 105 3.2 4.8 0.00 0.00 0.00 75
20260905232519 23 119 3.2 4.8 0.00 0.00 0.00 73
20260905231520 24 42 3.2 6.4 0.00 0.00 0.00 69
20260905230517 24 57 3.2 6.4 0.00 0.00 0.00 69
20260905225519 24 47 4.8 9.7 0.00 0.00 0.00 67
20260905224521 25 48 6.4 9.7 0.00 0.00 0.00 66
20260905223520 25 50 8.0 12.9 0.00 0.00 0.00 65
20260905222517 25 35 8.0 14.5 0.00 0.00 0.00 65
20260905220517 25 30 9.7 17.7 0.00 0.00 0.00 65
20260905215520 24 48 9.7 14.5 0.00 0.00 0.00 66
20260905214518 24 50 8.0 12.9 0.00 0.00 0.00 68
20260905213518 25 25 11.3 17.7 0.00 0.00 0.00 66
20260905212518 25 42 8.0 17.7 0.00 0.00 0.00 66
20260905211518 25 13 4.8 9.7 0.00 0.00 0.00 67
20260905210518 25 48 4.8 11.3 0.00 0.00 0.00 68
20260905205518 24 27 4.8 8.0 0.00 0.00 0.00 70
20260905204520 24 5 9.7 16.1 0.00 0.00 0.00 71
20260905203519 24 20 11.3 14.5 0.00 0.00 0.00 70
20260905202520 24 22 11.3 17.7 0.00 0.00 0.00 70
20260905201516 24 6 9.7 14.5 0.00 0.00 0.00 73
20260905195520 24 19 12.9 20.9 0.00 0.00 0.00 70
20260905194520 24 14 9.7 16.1 0.00 0.00 0.00 70
20260905193517 24 350 8.0 14.5 0.00 0.00 0.00 72
20260905192518 24 22 12.9 16.1 0.00 0.00 0.00 70
20260905190517 24 8 9.7 16.1 0.00 0.00 0.00 72
20260905185521 24 9 9.7 16.1 0.00 0.00 0.00 72
20260905183519 23 20 11.3 20.9 0.00 0.00 0.00 71
20260905182518 23 3 11.3 19.3 0.00 0.00 0.00 73
20260905181518 23 14 9.7 16.1 0.00 0.00 0.00 72
20260905180518 23 344 12.9 16.1 0.00 0.00 0.00 73
20260905175519 -17 332 14.5 17.7 0.00 0.00 0.00
20260905175019 24 1 9.7 19.3 0.00 0.00 0.00 71